Miscellaneous Local Product
Issued by NWS Hastings, NE

Home | Current Version | Previous Version | Graphics & Text | Print | Product List | Glossary On
Versions: 1 2 3 4 5 6 7 8 9 10 11 12 13 14 15 16 17 18 19 20 21 22 23 24 25 26 27 28 29 30 31 32 33 34 35 36 37 38 39 40 41 42 43 44 45 46 47 48 49 50
000
AXUS43 KGID 211910
MISGRI

GID CWA HOURLY WEATHER ROUNDUP
NATIONAL WEATHER SERVICE HASTINGS NE
200 PM CDT MON JUL 21 2014

NOTE: "FAIR" INDICATES FEW OR NO CLOUDS BELOW 12,000 FEET WITH NO
SIGNIFICANT WEATHER AND/OR OBSTRUCTIONS TO VISIBILITY.

...SOUTH CENTRAL NEBRASKA...

CITY           SKY/WX    TMP DP  RH WIND       PRES   REMARKS
GRAND ISLAND   MOSUNNY   96  73  47 SW13      29.87F HX 105
HASTINGS       MOSUNNY   92  69  47 SW7       29.89S HX  97
KEARNEY        PTSUNNY   97  70  41 S15       29.90S HX 103
ORD            NOT AVBL
YORK           MOSUNNY   93  73  52 SW10      29.87S HX 102
AURORA         MOSUNNY   88  74  63 SW6       29.87F HX  96
LEXINGTON      PTSUNNY   99  60  27 S3        29.90F HX  98
HOLDREGE       MOSUNNY   95  62  32 CALM      29.91F HX  96
HEBRON         SUNNY     97  69  40 SW12G17   29.88F HX 103

...NEBRASKA PANHANDLE...

CITY           SKY/WX    TMP DP  RH WIND       PRES   REMARKS
CHADRON        SUNNY    101  44  14 W17G35    29.90S HX  97
ALLIANCE       SUNNY     99  44  15 NW18G25   29.99F HX  95
SCOTTSBLUFF    SUNNY     98  50  19 NW10      30.02S HX  95
SIDNEY         MOSUNNY   98  41  14 N13G23    30.06S HX  93

...WESTERN AND NORTH CENTRAL NEBRASKA...

CITY           SKY/WX    TMP DP  RH WIND       PRES   REMARKS
VALENTINE      MOSUNNY  101  53  20 W18       29.85F HX  99
AINSWORTH      MOSUNNY  100  53  20 SW10      29.87S HX  97
ONEILL         PTSUNNY   97  61  30 S7        29.83S HX  97
BROKEN BOW     PTSUNNY   89  73  59 W6        29.90R HX  97
IMPERIAL       PTSUNNY   93  56  28 E3        29.98F HX  91
NORTH PLATTE   MOSUNNY   93  58  30 SW5       29.93S HX  92
MCCOOK         MOSUNNY   94  62  34 VRB6      29.94F HX  94

...EASTERN NEBRASKA...

CITY           SKY/WX    TMP DP  RH WIND       PRES   REMARKS
NORFOLK        MOSUNNY   92  74  55 SW10      29.82F HX 101
SO SIOUX CITY  PTSUNNY   88  77  69 S13       29.82F HX 100
TEKAMAH        PTSUNNY   93  75  55 S15G22    29.83F HX 104
COLUMBUS       MOSUNNY   91  75  59 S10       29.85S HX 102
ALBION         PTSUNNY   91  70  50 S8        29.84S HX  96
OMAHA EPPLEY   PTSUNNY   91  72  53 S15       29.85F HX  98
OFFUTT AFB     PTSUNNY   92  77  60 S12       29.86F HX 106
MILLARD        PTSUNNY   92  74  56 S10       29.85F HX 101
LINCOLN        MOSUNNY   98  70  40 SW16      29.86F HX 105
NEBRASKA CITY  PTSUNNY   91  72  53 S17       29.89F HX  99
BEATRICE       PTSUNNY   91  74  58 S15       29.89F HX 100
FALLS CITY     MOSUNNY   92  76  59 S14G26    29.91F HAZE    HX 104

...NORTHERN KANSAS...

CITY           SKY/WX    TMP DP  RH WIND       PRES   REMARKS
GOODLAND       PTSUNNY   96  62  32 VRB7      30.03S HX  97
HILL CITY      SUNNY    102  66  30 S12G20    29.92F HX 106
NORTON         CLEAR    100  55  22 SW12G18   29.91F HX  99
PHILLIPSBURG   SUNNY    100  64  30 S14G20    29.90F HX 103
SMITH CENTER   SUNNY    102  66  30 SW17      29.90S HX 107
BELOIT         SUNNY     43  18  36 S15G21    29.88F
HAYS           SUNNY     97  66  36 S18       29.94F HX 100
RUSSELL        SUNNY     95  73  48 S18G25    29.92F HX 104
CONCORDIA      SUNNY     98  71  41 SW16G25   29.90F HX 106
SALINA         SUNNY    101  72  39 SW16G24   29.92F HX 110
TOPEKA         MOSUNNY   94  74  52 S12G24    29.95F HX 104



USA.gov is the U.S. government's official web portal to all federal, state and local government web resources and services.